STARLINK-2041, 47657

Orbit data source: Space-Track

STARLINK-2041, 47657 is a payload satellite owned by SpaceX/Seattle (US) in LEO that was launched on Tue, 16 Feb 2021 UTC via an FALCON 9 launch vehicle from the Air Force Eastern Test Range (AFETR). Payload-class satellites include a variety of spacecraft equipped with specific instruments for various scientific and technological missions. These include communications satellites like Starlink; space stations such as the ISS; scientific satellites like the Hubble; Earth observation satellites from companies like Planet Labs, Umbra, and HawkEye 360; GPS; miniature CubeSats for education and research; and military/defense satellites.

Loading next visibility...
Identifier
47657, 2021-012AP
Orbit
LEO
Country
Flag of USUS
Related business
Manufacturer
SpaceX/Seattle
Mission
Operational Commercial Communications
Bus & Motor
STARLINK, Unknown motor
Mass
260 kg wet, ~248 kg dry
Launch date (UTC)
2021-02-16 (5 years ago)
Launch vehicle
FALCON 9
Launch site
Air Force Eastern Test Range (AFETR)
Object type
Payload
Rocket body
Debris
Shape & HBR
Box + 1 Pan, 4.4 m
Radar Cross Section
13.562 m², Large (>1 m²)

Expand to show TLE details & history
Last TLE update: 21 hours ago

TLE from 21 hours ago
0 STARLINK-2041
1 47657U 21012AP  25241.23026100  .00000497  00000-0  52274-4 0  9997
2 47657  53.0540 215.6013 0001443  91.3960 268.7194 15.06402645250979
Epoch: 2025-08-29T05:31Z
TLE epoch observation values (Epoch: 2025-08-29T05:31:34.55Z)
Latitude
-0.00004°
Longitude
155.02542°
Altitude
548.105 km
Speed
7.589 km/s
True Right ascension
14h 22m 24s
True Declination
0° 00' 00"
Sunlit
Object was in daylight at epoch
Visualization orbit readout
Latitude
Unknown
Longitude
Unknown
Altitude
Unknown
Speed
Unknown
Apparent Right ascension
Unknown
Apparent Declination
Unknown
Sunlit
N/A
Visualization observer readout
Local Sidereal Time
18:01:16
Azimuth
Unknown
Elevation
Unknown
Doppler factor
Unknown
Orbital elements
Apogee altitude
548.474 km
Perigee altitude
546.475 km
Semi-major axis
6,925.611 km
Eccentricity
0.00014
Inclination
53.054°
RAAN
215.6013°
Arg. of periapsis
91.396°
True anomaly
268.70287°
Mean anomaly
268.7194°
Eccentric anomaly
268.71113°
Mean motion
3.76579 °/min
Orbital period
95.6 mins
BSTAR
0.000052274
Loading maneuver chart data...
Computing Atmospheric mass density...

Documentation

Showing up to 5 results
|